Simultaneous Nadir Overpasses (SNOs) Predictions

Prediction of SNOs between GOES-17 and FY3D Satellite Orbit:

Table of predicted SNOs for the next 14.0 days since TLE Epoch: 4/29/2024
Index Date Time (GOES-17) GOES-17 Lat,Lon FY3D Lat,Lon Distance(km) Time Diff (sec)
1 04/30/2024 09:44:33 -0.00,-104.70 0.93,-108.70 456.51 80
2 05/01/2024 09:23:21 -0.00,-104.70 -0.09,-104.21 55.69 80
3 05/03/2024 21:27:06 0.00,-104.69 -0.10,-105.07 43.40 80
4 05/04/2024 21:11:15 0.00,-104.69 0.93,-100.58 469.12 80
5 05/06/2024 09:33:21 -0.00,-104.71 0.28,-105.88 134.86 80
6 05/07/2024 09:12:09 -0.00,-104.71 -0.75,-101.40 377.51 80
7 05/08/2024 21:34:26 0.00,-104.69 -0.44,-106.75 233.86 80
8 05/09/2024 21:18:33 0.00,-104.69 0.54,-102.25 278.56 80
9 05/11/2024 09:40:40 0.00,-104.71 0.66,-107.56 325.42 80
10 05/12/2024 09:19:28 0.00,-104.70 -0.39,-103.07 187.03 80
